Location: Newark
(50.0306°N, 2.3272°E)
Time: 10:24:29
(UTC+00:00)

Transit 2A - Visible Passes

Search period start: 12 December 2019 00:00
Search period end: 22 December 2019 00:00
Orbit: 602 x 957 km, 66.7° (Epoch: 11 December)

Date Brightness Start Highest point End Pass type
(mag) Time Alt. Az. Time Alt. Az. Time Alt. Az.
12 Dec 8.1 05:43:33 10° SSE 05:47:23 25° ESE 05:51:02 10° ENE visible
13 Dec 8.6 05:10:23 10° SSE 05:13:26 17° ESE 05:16:23 10° ENE visible
13 Dec 5.6 06:51:25 10° SW 06:56:06 73° NW 07:00:31 10° NE visible
14 Dec 8.9 04:37:56 10° SE 04:39:32 12° ESE 04:41:06 10° E visible
14 Dec 5.7 06:17:16 10° SSW 06:21:58 80° SE 06:26:24 10° NE visible
15 Dec 6.3 05:43:18 10° SSW 05:47:53 55° ESE 05:52:13 10° NE visible
16 Dec 7.0 05:09:30 10° S 05:13:50 38° ESE 05:17:56 10° NE visible
16 Dec 6.2 06:52:45 10° WSW 06:56:59 36° NW 07:01:04 10° NNE visible
17 Dec 7.7 04:35:56 10° S 04:39:50 26° ESE 04:43:34 10° ENE visible
17 Dec 5.8 06:18:17 10° WSW 06:22:46 48° NW 06:27:02 10° NNE visible
18 Dec 8.1 04:04:14 15° SE 04:05:52 18° ESE 04:08:57 10° ENE visible
18 Dec 5.5 05:44:52 15° SW 05:48:34 68° NW 05:52:58 10° NNE visible
19 Dec 8.6 03:32:42 12° E 03:32:42 12° E 03:33:51 10° E visible
19 Dec 5.5 05:13:17 50° SSW 05:14:26 86° SE 05:18:51 10° NE visible
19 Dec 6.9 06:54:44 10° W 06:58:07 21° NNW 07:01:26 10° NNE visible
20 Dec 6.3 04:41:08 50° ENE 04:41:08 50° ENE 04:44:41 10° NE visible
20 Dec 6.6 06:21:41 18° WNW 06:23:47 26° NW 06:27:29 10° NNE visible
21 Dec 7.8 04:08:41 22° ENE 04:08:41 22° ENE 04:10:26 10° NE visible
21 Dec 6.2 05:49:12 33° NW 05:49:29 33° NW 05:53:29 10° NNE visible
